sat.trackr.live / text

‹ back to catalog

NSS-11

NORAD 26554 · 2000-059A

PAYLOAD ACTIVE UNKNOWN

§ Identity

Operator
Country
SES
Launch date
2000-10-01
Launch site
TYMSC
Launch vehicle
Mass (kg)
RCS (m²)
19.95

Purposes: comms

External: N2YO · Heavens-Above · Gunter

§ Orbital elements

Epoch: 2026-05-25T02:52:05.351232Z

Period
1,436.10 min
Inclination
2.0694°
Eccentricity
0.0003049
Mean motion
1.00271828 rev/d
Perigee alt
35,773.7 km
Apogee alt
35,799.4 km
Semi-major
42,164.7 km
B*
0.0000e+0
RAAN
81.6505°
Arg perigee
333.3139°
Mean anomaly
46.7612°
Rev number
4,106

§ Raw data

NSS-111 26554U 00059A   26145.11950638  .00000023  00000+0  00000+0 0  99902 26554   2.0694  81.6505 0003049 333.3139  46.7612  1.00271828 41067

JSON: /api/v1/satellites/26554 · /tle

For live sub-satellite position, see the globe view (requires WebGL).

§ Visibility from observer

Set your observer location to see the next 7 days of passes ≥ 10°. The values pass through the URL so the page stays shareable.

No JS? Fill the form by hand. The geolocation button needs JavaScript.